[[{"header":{"parameterUnit":"m.s-1","parameterCategory":1,"la1":30.2991,"la2":30.254,"lo1":-89.0895,"lo2":-89.0444,"dy":0.0017,"dx":0.0017,"nx":28,"ny":28,"refTime":"2023-11-22T03:00:00:Z","depth":0,"parameterNumber":2,"parameterNumberName":"U-component_of_WINDS"},"data":[0,0,0,0,0,0,0,0,0,0,0,0,0,0,0,0,0,0,0,0,0,0,0,0,0,0,0,0,0,0,0,0,0,0,0,0,0,0,0,0,0,0,0,0,0,0,0,0,0,0,0,0,0,0,0,0,0,0,1.8536,1.8536,0,1.8523,1.8523,1.8523,1.8496,1.8496,1.8495,1.8495,1.8481,1.8481,1.8481,0,0,0,0,0,0,0,0,0,0,0,0,0,1.8537,1.8537,1.8536,1.8535,1.8535,1.8523,1.8523,1.8523,1.8497,1.8496,1.8495,1.8495,1.8481,1.8481,1.8481,0,0,0,0,0,0,0,0,0,0,0,0,0,1.8532,1.8537,1.8536,1.8521,1.8519,1.8523,1.8523,1.8523,1.8497,1.8496,1.8495,1.8494,1.8481,1.8481,1.8481,1.8498,0,0,1.8482,1.8482,0,0,0,0,0,0,0,0,1.8532,1.8532,1.8523,1.8522,1.852,1.8511,1.8518,1.8515,1.8497,1.8505,1.8495,1.8494,1.8491,1.8491,1.849,1.8498,1.8497,1.8482,1.8482,1.8482,1.8482,0,0,0,0,0,0,0,1.8532,1.8532,1.8531,1.8523,1.8521,1.8515,1.8513,1.8518,1.8503,1.8504,1.8502,1.8501,1.8491,1.849,1.849,1.8497,1.8482,1.8482,1.8482,1.8482,1.852,1.8521,0,0,0,0,0,0,1.8535,1.8533,1.8531,1.853,1.8524,1.8515,1.8514,1.8514,1.8503,1.85,1.8502,1.85,1.849,1.8489,1.8489,1.8509,1.8482,1.8482,1.8482,1.8519,1.852,1.8521,0,0,0,0,0,0,1.8535,1.8535,1.8532,1.8531,1.853,1.8516,1.8517,1.8515,1.8514,1.8501,1.8498,1.8504,1.8489,1.8489,1.8497,1.8508,1.8482,1.8483,1.8518,1.8519,1.8521,1.8549,0,0,0,0,0,0,1.8535,1.8535,1.8541,1.8531,1.853,1.8539,1.8518,1.8515,1.8515,1.8512,1.8502,1.85,1.8489,1.8497,1.8497,1.8508,1.8483,1.8517,1.8519,1.852,1.8547,1.8551,1.8555,0,0,0,0,0,1.8535,1.8549,1.8542,1.8542,1.8537,1.854,1.8539,1.8526,1.8516,1.8522,1.8514,1.85,1.8507,1.8498,1.8498,1.8509,1.8516,1.8518,1.852,1.8545,1.855,1.8555,0,0,0,0,0,0,1.856,1.8548,1.8539,1.855,1.8547,1.8536,1.8543,1.8532,1.8531,1.8529,1.8512,1.851,1.8521,1.8516,1.8505,1.8526,1.851,1.8512,1.8529,1.8534,1.8537,1.8538,1.8483,0,0,0,0,0,1.8567,1.8571,1.8559,1.857,1.8569,1.8557,1.8557,1.8548,1.8543,1.8541,1.8534,1.853,1.8531,1.8532,1.8532,1.8547,1.8545,1.8555,1.8559,1.8562,1.8564,1.8572,1.8577,1.8528,1.8528,1.8528,0,0,1.8581,1.8575,1.8578,1.8575,1.8571,1.8575,1.8555,1.856,1.8563,1.8542,1.8549,1.8544,1.8538,1.855,1.8554,1.8546,1.8577,1.8564,1.8567,1.8567,1.8575,1.8579,1.8584,1.8529,1.8529,1.8529,0,0,1.8609,1.8604,1.8613,1.861,1.8605,1.8597,1.8599,1.859,1.8586,1.8594,1.8578,1.8582,1.8584,1.8581,1.858,1.8609,1.8597,1.861,1.863,1.8638,1.8642,1.8646,1.8657,1.8661,1.8612,1.8612,1.8612,0,1.8627,1.8632,1.8619,1.8626,1.8625,1.8608,1.8617,1.8615,1.861,1.861,1.8601,1.8605,1.8599,1.8611,1.8618,1.8618,1.862,1.8611,1.8643,1.8646,1.8649,1.8659,1.8664,1.8614,1.8614,1.8613,1.8613,0,1.8655,1.8659,1.8667,1.8664,1.8665,1.8673,1.8661,1.8664,1.8655,1.8648,1.8657,1.865,1.865,1.8652,1.8643,1.8662,1.8657,1.8646,1.8629,1.8656,1.8665,1.8669,1.8616,1.8615,1.8615,1.8615,0,0,1.8696,1.8687,1.8691,1.8689,1.8683,1.8686,1.8694,1.8694,1.8697,1.8695,1.8701,1.8705,1.8695,1.8693,1.8684,1.8691,1.8716,1.8679,1.8679,1.8687,1.8739,1.8747,1.8752,1.8709,1.8709,1.871,1.8739,0,1.8723,1.8735,1.8725,1.8739,1.8744,1.8728,1.8735,1.8732,1.8726,1.8729,1.8723,1.8726,1.8712,1.8712,1.8718,1.8712,1.8726,1.8709,1.8714,1.8715,1.8716,1.8757,1.8766,1.8794,1.8743,1.8743,1.8744,0,1.8754,1.8755,1.877,1.8765,1.8766,1.8772,1.8773,1.8776,1.8773,1.8768,1.8768,1.8757,1.8765,1.8749,1.876,1.8749,1.8751,1.8748,1.8749,1.8748,1.8731,1.8758,1.8802,1.8807,1.8749,1.8749,1.8749,0,1.8784,1.8788,1.8798,1.8798,1.8791,1.8796,1.8794,1.879,1.8792,1.8792,1.8793,1.8794,1.8795,1.8796,1.8786,1.8776,1.8799,1.8782,1.8796,1.8796,1.8801,1.88,1.8846,1.8802,1.8802,1.8802,1.8802,0,1.8814,1.8824,1.8812,1.8818,1.8829,1.8817,1.8829,1.8825,1.8822,1.8828,1.8814,1.882,1.8806,1.8811,1.8803,1.8814,1.8814,1.8811,1.8809,1.8812,1.8813,1.8813,1.8811,1.8803,1.8803,1.8802,1.8802,0,1.8848,1.884,1.885,1.8844,1.8843,1.8852,1.8846,1.8852,1.8846,1.8854,1.8855,1.8846,1.885,1.8841,1.8844,1.8839,1.8854,1.8849,1.8856,1.8854,1.8869,1.8867,1.8916,1.8922,1.8874,1.8874,1.8875,0,1.8868,1.8876,1.8871,1.8874,1.8873,1.8877,1.8879,1.8869,1.8871,1.887,1.8876,1.888,1.8882,1.889,1.8884,1.8887,1.8881,1.8898,1.8882,1.8885,1.8882,1.8882,1.8883,1.8901,1.8902,1.8902,1.8903,0,1.8904,1.8901,1.8904,1.8906,1.8909,1.891,1.891,1.8914,1.8903,1.8906,1.8911,1.8913,1.8917,1.8921,1.8923,1.8921,1.891,1.8908,1.8912,1.8915,1.8919,1.8918,1.8865,1.8907,1.8907,1.8906,1.8906,1.8906,1.8932,1.8939,1.8937,1.8941,1.8941,1.8942,1.8948,1.8943,1.8947,1.895,1.8944,1.895,1.8949,1.895,1.8949,1.8955,1.8947,1.8952,1.8953,1.8955,1.8957,1.8918,1.8955,1.8955,1.8955,1.8955,1.8955,0,1.8968,1.8967,1.8971,1.8972,1.8976,1.8967,1.8967,1.8971,1.8978,1.8977,1.898,1.8987,1.8991,1.8986,1.899,1.8996,1.8991,1.8997,1.8996,1.8996,1.8963,1.896,1.9001,1.9001,1.9001,1.9001,1.9001,1.9001,1.8987,1.8998,1.8995,1.9006,1.9004,1.9011,1.9012,1.9013,1.9013,1.9021,1.9025,1.9022,1.902,1.9024,1.9028,1.9027,1.9029,1.9036,1.9033,1.9003,1.8998,1.8994,1.8991,1.9037,1.9037,1.9066,1.9066,1.9066]},{"header":{"parameterUnit":"m.s-1","parameterCategory":1,"la1":30.2991,"la2":30.254,"lo1":-89.0895,"lo2":-89.0444,"dy":0.0017,"dx":0.0017,"nx":28,"ny":28,"refTime":"2023-11-22T03:00:00:Z","depth":0,"parameterNumber":3,"parameterNumberName":"V-component_of_WINDS"},"data":[0,0,0,0,0,0,0,0,0,0,0,0,0,0,0,0,0,0,0,0,0,0,0,0,0,0,0,0,0,0,0,0,0,0,0,0,0,0,0,0,0,0,0,0,0,0,0,0,0,0,0,0,0,0,0,0,0,0,-6.2357,-6.2359,0,-6.2473,-6.2474,-6.2475,-6.246,-6.2458,-6.2456,-6.2454,-6.2566,-6.2571,-6.2576,0,0,0,0,0,0,0,0,0,0,0,0,0,-6.212,-6.2125,-6.2357,-6.2359,-6.236,-6.2472,-6.2474,-6.2475,-6.246,-6.2458,-6.2455,-6.2453,-6.2565,-6.257,-6.2576,0,0,0,0,0,0,0,0,0,0,0,0,0,-6.2228,-6.2126,-6.2357,-6.2366,-6.2368,-6.2472,-6.2474,-6.2476,-6.246,-6.2458,-6.2455,-6.2452,-6.2563,-6.257,-6.2577,-6.2677,0,0,-6.2598,-6.2602,0,0,0,0,0,0,0,0,-6.2222,-6.2237,-6.2363,-6.2366,-6.2368,-6.2449,-6.2431,-6.2543,-6.2461,-6.2425,-6.2454,-6.2451,-6.2529,-6.2539,-6.2566,-6.2682,-6.2687,-6.2599,-6.2603,-6.2606,-6.2608,0,0,0,0,0,0,0,-6.2214,-6.2232,-6.2403,-6.2365,-6.2368,-6.2363,-6.2375,-6.2452,-6.2491,-6.2428,-6.2427,-6.2441,-6.253,-6.256,-6.2569,-6.2689,-6.2599,-6.2605,-6.261,-6.2612,-6.2895,-6.2898,0,0,0,0,0,0,-6.2205,-6.2225,-6.2399,-6.2406,-6.2287,-6.237,-6.2383,-6.2426,-6.2491,-6.2498,-6.2444,-6.244,-6.2549,-6.2561,-6.2573,-6.2696,-6.2606,-6.2613,-6.2617,-6.2892,-6.2896,-6.2899,0,0,0,0,0,0,-6.22,-6.2221,-6.2394,-6.2316,-6.2337,-6.2377,-6.2425,-6.2429,-6.2459,-6.2503,-6.2509,-6.2467,-6.2547,-6.2563,-6.2652,-6.27,-6.2616,-6.2623,-6.2888,-6.2893,-6.2897,-6.2942,0,0,0,0,0,0,-6.2193,-6.2219,-6.2258,-6.2317,-6.2342,-6.2473,-6.2427,-6.2434,-6.2472,-6.2469,-6.2526,-6.2533,-6.2546,-6.2642,-6.2659,-6.2708,-6.2628,-6.2884,-6.289,-6.2896,-6.2937,-6.2948,-6.2958,0,0,0,0,0,-6.2185,-6.2265,-6.226,-6.2281,-6.2392,-6.2476,-6.249,-6.2505,-6.2476,-6.2516,-6.2544,-6.2531,-6.2692,-6.2651,-6.2671,-6.2722,-6.2881,-6.2888,-6.2895,-6.2932,-6.2946,-6.2958,0,0,0,0,0,0,-6.2208,-6.2272,-6.2268,-6.237,-6.2418,-6.2473,-6.2523,-6.2519,-6.2575,-6.2569,-6.2583,-6.2597,-6.2687,-6.2713,-6.2667,-6.2824,-6.2782,-6.2794,-6.2803,-6.2817,-6.2827,-6.2819,-6.2634,0,0,0,0,0,-6.2226,-6.229,-6.2342,-6.2426,-6.2451,-6.2483,-6.252,-6.2528,-6.2578,-6.2597,-6.2632,-6.2679,-6.274,-6.278,-6.2838,-6.2941,-6.2953,-6.2986,-6.2996,-6.3005,-6.3014,-6.3072,-6.3087,-6.2923,-6.2923,-6.2923,0,0,-6.2261,-6.2304,-6.2343,-6.2432,-6.247,-6.2536,-6.25,-6.257,-6.2619,-6.2607,-6.2695,-6.2722,-6.2775,-6.2872,-6.2916,-6.2897,-6.3063,-6.3014,-6.3021,-6.3026,-6.3081,-6.3097,-6.311,-6.2928,-6.2927,-6.2926,0,0,-6.236,-6.2399,-6.2475,-6.2514,-6.2574,-6.2595,-6.2613,-6.267,-6.2689,-6.2777,-6.2771,-6.2827,-6.2932,-6.2971,-6.3005,-6.3121,-6.3112,-6.314,-6.3195,-6.3251,-6.3264,-6.3275,-6.3318,-6.3332,-6.3149,-6.315,-6.315,0,-6.2396,-6.2496,-6.2513,-6.2586,-6.2625,-6.262,-6.2697,-6.2734,-6.2808,-6.2835,-6.2813,-6.2946,-6.2981,-6.3088,-6.3117,-6.3144,-6.3165,-6.3133,-6.3261,-6.3272,-6.3283,-6.3324,-6.334,-6.3153,-6.3152,-6.3152,-6.3152,0,-6.2538,-6.2608,-6.2661,-6.2737,-6.2782,-6.2856,-6.2884,-6.2927,-6.2932,-6.2955,-6.3046,-6.3089,-6.3157,-6.3183,-6.3186,-6.3291,-6.3277,-6.3257,-6.3216,-6.3302,-6.334,-6.3356,-6.3157,-6.3156,-6.3155,-6.3154,0,0,-6.2653,-6.2739,-6.2759,-6.2794,-6.286,-6.2914,-6.2987,-6.3056,-6.3094,-6.3146,-6.3208,-6.3298,-6.3282,-6.332,-6.3328,-6.3377,-6.3468,-6.3352,-6.3353,-6.3372,-6.3587,-6.3601,-6.3619,-6.3463,-6.3466,-6.3468,-6.3582,0,-6.2759,-6.2892,-6.2911,-6.3027,-6.3092,-6.309,-6.3154,-6.3201,-6.3226,-6.3283,-6.3309,-6.3374,-6.3346,-6.337,-6.3418,-6.3447,-6.3511,-6.3439,-6.352,-6.3523,-6.3507,-6.3639,-6.3654,-6.376,-6.3597,-6.36,-6.3602,0,-6.2899,-6.2959,-6.3083,-6.3143,-6.3171,-6.3228,-6.3294,-6.335,-6.3403,-6.3417,-6.3462,-6.3465,-6.354,-6.3496,-6.3601,-6.3551,-6.3586,-6.3605,-6.3609,-6.3617,-6.3567,-6.3651,-6.3794,-6.381,-6.3625,-6.3624,-6.3622,0,-6.2972,-6.3083,-6.3172,-6.3202,-6.3273,-6.3314,-6.3345,-6.3397,-6.3438,-6.3495,-6.3522,-6.3586,-6.3621,-6.367,-6.369,-6.3656,-6.3794,-6.3751,-6.3807,-6.3807,-6.3836,-6.3834,-6.3987,-6.3858,-6.3857,-6.3857,-6.3857,0,-6.3089,-6.3165,-6.3206,-6.3261,-6.3346,-6.3367,-6.345,-6.348,-6.3526,-6.3586,-6.3587,-6.3642,-6.3666,-6.3725,-6.3741,-6.3825,-6.3841,-6.3854,-6.3857,-6.3854,-6.3853,-6.3877,-6.387,-6.3861,-6.386,-6.386,-6.3859,0,-6.3184,-6.3214,-6.3312,-6.3373,-6.339,-6.345,-6.3502,-6.3555,-6.358,-6.3656,-6.3674,-6.3713,-6.3783,-6.3808,-6.3892,-6.3903,-6.4002,-6.3998,-6.3984,-6.3985,-6.4041,-6.4035,-6.4215,-6.424,-6.4093,-6.4095,-6.4096,0,-6.3256,-6.3315,-6.3384,-6.3425,-6.3459,-6.3525,-6.3568,-6.3591,-6.3635,-6.3703,-6.3747,-6.3818,-6.3875,-6.3987,-6.4022,-6.4086,-6.4085,-6.4144,-6.4094,-6.409,-6.4087,-6.4083,-6.409,-6.4152,-6.4154,-6.4155,-6.4156,0,-6.3382,-6.3395,-6.3458,-6.3527,-6.3579,-6.3634,-6.3687,-6.372,-6.3751,-6.38,-6.3874,-6.3919,-6.4007,-6.4077,-6.4144,-6.4174,-6.4171,-6.4172,-6.4188,-6.4186,-6.4176,-6.4183,-6.401,-6.4167,-6.4166,-6.4165,-6.4165,-6.4164,-6.3468,-6.3521,-6.3579,-6.365,-6.3693,-6.3743,-6.3796,-6.3829,-6.3892,-6.3967,-6.3976,-6.4055,-6.4108,-6.4198,-6.4232,-6.4293,-6.4277,-6.4301,-6.4307,-6.4313,-6.4317,-6.4166,-6.4305,-6.4305,-6.4305,-6.4305,-6.4304,0,-6.3594,-6.3632,-6.3697,-6.3773,-6.3829,-6.3823,-6.3882,-6.3929,-6.3999,-6.405,-6.4108,-6.4193,-6.4261,-6.4302,-6.437,-6.4412,-6.4412,-6.4429,-6.4426,-6.4434,-6.4327,-6.4307,-6.4428,-6.4428,-6.4428,-6.4428,-6.4428,-6.4428,-6.3667,-6.3757,-6.3778,-6.389,-6.3926,-6.4006,-6.404,-6.4086,-6.4128,-6.4223,-6.4281,-6.4308,-6.4356,-6.4428,-6.449,-6.4501,-6.4526,-6.4545,-6.4553,-6.4453,-6.4441,-6.4429,-6.4409,-6.455,-6.455,-6.4654,-6.4655,-6.4656]}]]